Time,TemperatureF,DewpointF,PressureIn,WindDirection,WindDirectionDegrees,WindSpeedMPH,WindSpeedGustMPH,Humidity,HourlyPrecipIn,Conditions,Clouds,dailyrainin,SoftwareType,DateUTC
2013-04-09 00:00:00,65.3,56.0,29.95,WSW,247,7.0,12.0,71,0.00,,OVC OVC///CB,0.00,WUHU216DAVISVP2,2013-04-09 04:00:00,
2013-04-09 00:05:00,65.3,56.0,29.95,West,260,5.0,12.0,71,0.00,,OVC OVC///CB,0.00,WUHU216DAVISVP2,2013-04-09 04:05:00,
2013-04-09 00:10:00,65.3,56.0,29.95,WSW,255,9.0,14.0,71,0.00,,OVC OVC///CB,0.00,WUHU216DAVISVP2,2013-04-09 04:10:00,
2013-04-09 00:15:00,65.3,56.0,29.95,West,269,6.0,14.0,71,0.00,,OVC OVC///CB,0.00,WUHU216DAVISVP2,2013-04-09 04:15:00,
2013-04-09 00:20:00,65.2,55.9,29.95,West,276,3.0,13.0,71,0.00,,OVC OVC///CB,0.00,WUHU216DAVISVP2,2013-04-09 04:20:00,
2013-04-09 00:25:00,65.2,56.2,29.95,West,274,4.0,11.0,72,0.00,,OVC OVC///CB,0.00,WUHU216DAVISVP2,2013-04-09 04:25:00,
2013-04-09 00:30:00,65.3,56.3,29.96,SW,221,2.0,12.0,72,0.00,,OVC OVC///CB,0.00,WUHU216DAVISVP2,2013-04-09 04:30:00,
2013-04-09 00:35:00,65.3,56.3,29.96,SW,225,2.0,12.0,72,0.00,,OVC OVC///CB,0.00,WUHU216DAVISVP2,2013-04-09 04:35:00,
2013-04-09 00:40:00,65.2,56.2,29.96,WSW,249,4.0,12.0,72,0.00,,OVC OVC///CB,0.00,WUHU216DAVISVP2,2013-04-09 04:40:00,
2013-04-09 00:45:00,65.1,56.1,29.96,WSW,242,12.0,13.0,72,0.00,,OVC OVC///CB,0.00,WUHU216DAVISVP2,2013-04-09 04:45:00,
2013-04-09 00:51:00,65.0,56.4,29.97,SW,228,6.0,13.0,73,0.00,,OVC OVC///CB,0.00,WUHU216DAVISVP2,2013-04-09 04:51:00,
2013-04-09 00:56:00,64.9,56.3,29.96,WSW,248,3.0,13.0,73,0.00,,OVC OVC///CB,0.00,WUHU216DAVISVP2,2013-04-09 04:56:00,
2013-04-09 01:01:00,64.8,56.2,29.97,West,270,4.0,12.0,73,0.00,,OVC OVC///CB,0.00,WUHU216DAVISVP2,2013-04-09 05:01:00,
2013-04-09 01:06:00,64.6,56.4,29.97,WSW,240,1.0,9.0,74,0.00,,OVC OVC///CB,0.00,WUHU216DAVISVP2,2013-04-09 05:06:00,
2013-04-09 01:11:00,64.5,56.3,29.97,SW,235,5.0,9.0,74,0.00,,OVC OVC///CB,0.00,WUHU216DAVISVP2,2013-04-09 05:11:00,
2013-04-09 01:16:00,64.4,56.2,29.97,WSW,242,4.0,11.0,74,0.00,,OVC OVC///CB,0.00,WUHU216DAVISVP2,2013-04-09 05:16:00,
2013-04-09 01:21:00,64.3,56.1,29.97,WSW,245,3.0,11.0,74,0.00,,OVC OVC///CB,0.00,WUHU216DAVISVP2,2013-04-09 05:21:00,
2013-04-09 01:26:00,64.2,56.4,29.97,West,273,2.0,11.0,75,0.00,,OVC OVC///CB,0.00,WUHU216DAVISVP2,2013-04-09 05:26:00,
2013-04-09 01:31:00,64.1,56.3,29.97,WSW,249,3.0,11.0,75,0.00,,OVC OVC///CB,0.00,WUHU216DAVISVP2,2013-04-09 05:31:00,
2013-04-09 01:36:00,64.0,56.2,29.98,West,270,1.0,8.0,75,0.00,,OVC OVC///CB,0.00,WUHU216DAVISVP2,2013-04-09 05:36:00,
2013-04-09 01:41:00,63.8,56.3,29.98,West,280,3.0,10.0,76,0.00,,OVC OVC///CB,0.00,WUHU216DAVISVP2,2013-04-09 05:41:00,
2013-04-09 01:46:00,63.7,56.2,29.98,West,276,1.0,10.0,76,0.00,,OVC OVC///CB,0.00,WUHU216DAVISVP2,2013-04-09 05:46:00,
2013-04-09 01:51:00,63.5,56.0,29.98,WNW,284,2.0,9.0,76,0.00,,OVC OVC///CB,0.00,WUHU216DAVISVP2,2013-04-09 05:51:00,
2013-04-09 01:56:00,63.4,55.9,29.98,WNW,290,3.0,7.0,76,0.00,,OVC OVC///CB,0.00,WUHU216DAVISVP2,2013-04-09 05:56:00,
2013-04-09 02:01:00,63.3,56.2,29.98,West,271,5.0,7.0,77,0.00,,OVC OVC///CB,0.00,WUHU216DAVISVP2,2013-04-09 06:01:00,
2013-04-09 02:06:00,63.3,56.2,29.98,West,276,2.0,7.0,77,0.00,,OVC OVC///CB,0.00,WUHU216DAVISVP2,2013-04-09 06:06:00,
2013-04-09 02:11:00,63.2,56.1,29.98,West,262,1.0,7.0,77,0.00,,OVC OVC///CB,0.00,WUHU216DAVISVP2,2013-04-09 06:11:00,
2013-04-09 02:16:00,63.0,55.9,29.98,WSW,257,1.0,6.0,77,0.00,,OVC OVC///CB,0.00,WUHU216DAVISVP2,2013-04-09 06:16:00,
2013-04-09 02:21:00,62.9,56.2,29.98,West,278,1.0,6.0,78,0.00,,OVC OVC///CB,0.00,WUHU216DAVISVP2,2013-04-09 06:21:00,
2013-04-09 02:27:00,62.9,56.2,29.98,SW,235,2.0,4.0,78,0.00,,OVC OVC///CB,0.00,WUHU216DAVISVP2,2013-04-09 06:27:00,
2013-04-09 02:32:00,62.7,56.0,29.99,West,281,2.0,4.0,78,0.00,,OVC OVC///CB,0.00,WUHU216DAVISVP2,2013-04-09 06:32:00,
2013-04-09 02:37:00,62.6,55.9,29.99,WNW,292,2.0,4.0,78,0.00,,OVC OVC///CB,0.00,WUHU216DAVISVP2,2013-04-09 06:37:00,
2013-04-09 02:42:00,62.5,56.1,29.98,WNW,284,2.0,4.0,79,0.00,,OVC OVC///CB,0.00,WUHU216DAVISVP2,2013-04-09 06:42:00,
2013-04-09 02:47:00,62.5,56.1,29.99,West,270,4.0,4.0,79,0.00,,OVC OVC///CB,0.00,WUHU216DAVISVP2,2013-04-09 06:47:00,
2013-04-09 02:52:00,62.5,56.1,29.99,WNW,298,2.0,5.0,79,0.00,,OVC OVC///CB,0.00,WUHU216DAVISVP2,2013-04-09 06:52:00,
2013-04-09 02:57:00,62.5,56.1,29.99,West,280,1.0,5.0,79,0.00,,OVC OVC///CB,0.00,WUHU216DAVISVP2,2013-04-09 06:57:00,
2013-04-09 03:02:00,62.3,55.9,29.99,West,273,1.0,8.0,79,0.00,,OVC OVC///CB,0.00,WUHU216DAVISVP2,2013-04-09 07:02:00,
2013-04-09 03:07:00,62.1,56.1,29.99,WNW,300,2.0,8.0,80,0.00,,OVC OVC///CB,0.00,WUHU216DAVISVP2,2013-04-09 07:07:00,
2013-04-09 03:12:00,62.0,56.3,29.99,WNW,293,0.0,9.0,81,0.00,,OVC OVC///CB,0.00,WUHU216DAVISVP2,2013-04-09 07:12:00,
2013-04-09 03:17:00,61.9,56.2,30.00,WNW,294,5.0,10.0,81,0.00,,OVC OVC///CB,0.00,WUHU216DAVISVP2,2013-04-09 07:17:00,
2013-04-09 03:22:00,61.8,56.1,30.00,WNW,287,3.0,10.0,81,0.00,,OVC OVC///CB,0.00,WUHU216DAVISVP2,2013-04-09 07:22:00,
2013-04-09 03:27:00,61.6,55.9,30.00,NW,325,4.0,10.0,81,0.00,,OVC OVC///CB,0.00,WUHU216DAVISVP2,2013-04-09 07:27:00,
2013-04-09 03:32:00,61.5,55.8,30.00,WNW,283,1.0,10.0,81,0.00,,OVC OVC///CB,0.00,WUHU216DAVISVP2,2013-04-09 07:32:00,
2013-04-09 03:37:00,61.3,55.9,30.00,NW,311,4.0,6.0,82,0.00,,OVC OVC///CB,0.00,WUHU216DAVISVP2,2013-04-09 07:37:00,
2013-04-09 03:42:00,61.1,55.7,30.00,West,263,4.0,7.0,82,0.00,,OVC OVC///CB,0.00,WUHU216DAVISVP2,2013-04-09 07:42:00,
2013-04-09 03:47:00,60.9,55.5,30.00,West,278,2.0,7.0,82,0.00,,OVC OVC///CB,0.00,WUHU216DAVISVP2,2013-04-09 07:47:00,
2013-04-09 03:52:00,60.6,55.2,30.00,WNW,293,1.0,7.0,82,0.00,,OVC OVC///CB,0.00,WUHU216DAVISVP2,2013-04-09 07:52:00,
2013-04-09 03:57:00,60.3,54.9,30.00,WNW,293,1.0,7.0,82,0.00,,OVC OVC///CB,0.00,WUHU216DAVISVP2,2013-04-09 07:57:00,
2013-04-09 04:02:00,60.0,55.0,30.01,NW,307,3.0,7.0,83,0.00,,OVC OVC///CB,0.00,WUHU216DAVISVP2,2013-04-09 08:02:00,
2013-04-09 04:07:00,59.6,54.6,30.01,West,280,2.0,7.0,83,0.00,,OVC OVC///CB,0.00,WUHU216DAVISVP2,2013-04-09 08:07:00,
2013-04-09 04:12:00,59.3,54.3,30.01,West,277,0.0,7.0,83,0.00,,OVC OVC///CB,0.00,WUHU216DAVISVP2,2013-04-09 08:12:00,
2013-04-09 04:18:00,59.0,54.0,30.01,WNW,293,2.0,4.0,83,0.00,,OVC OVC///CB,0.00,WUHU216DAVISVP2,2013-04-09 08:18:00,
2013-04-09 04:23:00,58.8,53.8,30.01,WNW,284,0.0,4.0,83,0.00,,OVC OVC///CB,0.00,WUHU216DAVISVP2,2013-04-09 08:23:00,
2013-04-09 04:28:00,58.5,53.2,30.02,West,271,0.0,4.0,82,0.00,,OVC OVC///CB,0.00,WUHU216DAVISVP2,2013-04-09 08:28:00,
2013-04-09 04:33:00,58.2,52.9,30.02,NW,316,0.0,3.0,82,0.00,,OVC OVC///CB,0.00,WUHU216DAVISVP2,2013-04-09 08:33:00,
2013-04-09 04:38:00,58.0,52.7,30.02,WNW,294,0.0,3.0,82,0.00,,OVC OVC///CB,0.00,WUHU216DAVISVP2,2013-04-09 08:38:00,
2013-04-09 04:43:00,57.8,52.5,30.02,WNW,288,0.0,2.0,82,0.00,,OVC OVC///CB,0.00,WUHU216DAVISVP2,2013-04-09 08:43:00,
2013-04-09 04:48:00,57.4,52.4,30.02,WNW,288,0.0,2.0,83,0.00,,OVC OVC///CB,0.00,WUHU216DAVISVP2,2013-04-09 08:48:00,
2013-04-09 04:53:00,57.1,52.1,30.02,WNW,288,0.0,1.0,83,0.00,,OVC OVC///CB,0.00,WUHU216DAVISVP2,2013-04-09 08:53:00,
2013-04-09 04:58:00,56.7,51.7,30.02,West,274,0.0,1.0,83,0.00,,OVC OVC///CB,0.00,WUHU216DAVISVP2,2013-04-09 08:58:00,
2013-04-09 05:03:00,56.2,51.3,30.02,WSW,244,1.0,2.0,83,0.00,,OVC OVC///CB,0.00,WUHU216DAVISVP2,2013-04-09 09:03:00,
2013-04-09 05:08:00,55.9,51.0,30.02,WSW,256,0.0,2.0,83,0.00,,OVC OVC///CB,0.00,WUHU216DAVISVP2,2013-04-09 09:08:00,
2013-04-09 05:13:00,55.8,50.9,30.02,West,281,0.0,2.0,83,0.00,,OVC OVC///CB,0.00,WUHU216DAVISVP2,2013-04-09 09:13:00,
2013-04-09 05:18:00,55.7,50.8,30.03,WNW,289,0.0,2.0,83,0.00,,OVC OVC///CB,0.00,WUHU216DAVISVP2,2013-04-09 09:18:00,
2013-04-09 05:23:00,55.6,50.7,30.03,NW,316,0.0,2.0,83,0.00,,OVC OVC///CB,0.00,WUHU216DAVISVP2,2013-04-09 09:23:00,
2013-04-09 05:28:00,55.3,50.4,30.03,WNW,288,0.0,2.0,83,0.00,,OVC OVC///CB,0.00,WUHU216DAVISVP2,2013-04-09 09:28:00,
2013-04-09 05:33:00,55.1,49.9,30.03,WNW,287,0.0,2.0,82,0.00,,OVC OVC///CB,0.00,WUHU216DAVISVP2,2013-04-09 09:33:00,
2013-04-09 05:38:00,54.9,49.7,30.03,WSW,252,0.0,2.0,82,0.00,,OVC OVC///CB,0.00,WUHU216DAVISVP2,2013-04-09 09:38:00,
2013-04-09 05:43:00,54.5,49.6,30.03,WSW,252,0.0,1.0,83,0.00,,OVC OVC///CB,0.00,WUHU216DAVISVP2,2013-04-09 09:43:00,
2013-04-09 05:48:00,54.2,49.3,30.04,WSW,252,0.0,1.0,83,0.00,,OVC OVC///CB,0.00,WUHU216DAVISVP2,2013-04-09 09:48:00,
2013-04-09 05:53:00,53.9,49.0,30.04,WSW,249,0.0,1.0,83,0.00,,OVC OVC///CB,0.00,WUHU216DAVISVP2,2013-04-09 09:53:00,
2013-04-09 05:58:00,53.8,48.9,30.04,WSW,249,0.0,0.0,83,0.00,,OVC OVC///CB,0.00,WUHU216DAVISVP2,2013-04-09 09:58:00,
2013-04-09 06:03:00,53.4,48.5,30.04,WSW,249,0.0,0.0,83,0.00,,OVC OVC///CB,0.00,WUHU216DAVISVP2,2013-04-09 10:03:00,
2013-04-09 06:08:00,53.1,48.5,30.05,WSW,249,0.0,0.0,84,0.00,,OVC OVC///CB,0.00,WUHU216DAVISVP2,2013-04-09 10:08:00,
2013-04-09 06:13:00,52.7,48.4,30.05,WSW,249,0.0,0.0,85,0.00,,OVC OVC///CB,0.00,WUHU216DAVISVP2,2013-04-09 10:13:00,
2013-04-09 06:18:00,52.5,48.8,30.04,WSW,249,0.0,0.0,87,0.00,,OVC OVC///CB,0.00,WUHU216DAVISVP2,2013-04-09 10:18:00,
2013-04-09 06:23:00,52.5,49.1,30.04,WSW,249,0.0,0.0,88,0.00,,OVC OVC///CB,0.00,WUHU216DAVISVP2,2013-04-09 10:23:00,
2013-04-09 06:28:00,52.2,49.1,30.05,WSW,249,0.0,0.0,89,0.00,,OVC OVC///CB,0.00,WUHU216DAVISVP2,2013-04-09 10:28:00,
2013-04-09 06:33:00,51.8,48.7,30.05,WSW,250,0.0,0.0,89,0.00,,OVC OVC///CB,0.00,WUHU216DAVISVP2,2013-04-09 10:33:00,
2013-04-09 06:38:00,51.2,48.4,30.04,WSW,249,0.0,0.0,90,0.00,,OVC OVC///CB,0.00,WUHU216DAVISVP2,2013-04-09 10:38:00,
2013-04-09 06:43:00,50.8,48.3,30.05,WSW,249,0.0,0.0,91,0.00,,OVC OVC///CB,0.00,WUHU216DAVISVP2,2013-04-09 10:43:00,
2013-04-09 06:48:00,50.9,48.4,30.05,WSW,249,0.0,0.0,91,0.00,,OVC OVC///CB,0.00,WUHU216DAVISVP2,2013-04-09 10:48:00,
2013-04-09 06:53:00,50.7,48.2,30.05,WSW,249,0.0,0.0,91,0.00,,OVC OVC///CB,0.00,WUHU216DAVISVP2,2013-04-09 10:53:00,
2013-04-09 06:58:00,50.5,48.3,30.05,NNW,340,0.0,0.0,92,0.00,,OVC OVC///CB,0.00,WUHU216DAVISVP2,2013-04-09 10:58:00,
2013-04-09 07:03:00,50.1,47.9,30.06,NNW,340,0.0,0.0,92,0.00,,OVC OVC///CB,0.00,WUHU216DAVISVP2,2013-04-09 11:03:00,
2013-04-09 07:08:00,49.9,48.0,30.06,NNW,340,0.0,0.0,93,0.00,,OVC OVC///CB,0.00,WUHU216DAVISVP2,2013-04-09 11:08:00,
2013-04-09 07:13:00,49.8,47.9,30.06,NNW,340,0.0,0.0,93,0.00,,OVC OVC///CB,0.00,WUHU216DAVISVP2,2013-04-09 11:13:00,
2013-04-09 07:18:00,50.3,47.6,30.06,NE,36,3.0,4.0,90,0.00,,OVC OVC///CB,0.00,WUHU216DAVISVP2,2013-04-09 11:18:00,
2013-04-09 07:23:00,50.9,47.6,30.06,NNW,347,1.0,4.0,88,0.00,,OVC OVC///CB,0.00,WUHU216DAVISVP2,2013-04-09 11:23:00,
2013-04-09 07:28:00,51.2,47.6,30.06,NNE,27,0.0,4.0,87,0.00,,OVC OVC///CB,0.00,WUHU216DAVISVP2,2013-04-09 11:28:00,
2013-04-09 07:33:00,51.5,47.3,30.07,North,9,2.0,4.0,85,0.00,,OVC OVC///CB,0.00,WUHU216DAVISVP2,2013-04-09 11:33:00,
2013-04-09 07:38:00,51.6,47.0,30.07,NNE,28,2.0,2.0,84,0.00,,OVC OVC///CB,0.00,WUHU216DAVISVP2,2013-04-09 11:38:00,
2013-04-09 07:43:00,51.8,47.2,30.07,NE,36,1.0,4.0,84,0.00,,OVC OVC///CB,0.00,WUHU216DAVISVP2,2013-04-09 11:43:00,
2013-04-09 07:48:00,51.8,46.9,30.07,NE,46,3.0,4.0,83,0.00,,OVC OVC///CB,0.00,WUHU216DAVISVP2,2013-04-09 11:48:00,
2013-04-09 07:53:00,51.9,47.0,30.07,NNE,19,1.0,4.0,83,0.00,,OVC OVC///CB,0.00,WUHU216DAVISVP2,2013-04-09 11:53:00,
2013-04-09 07:58:00,52.0,46.8,30.07,ENE,63,2.0,4.0,82,0.00,,OVC OVC///CB,0.00,WUHU216DAVISVP2,2013-04-09 11:58:00,
2013-04-09 08:03:00,51.9,46.7,30.08,ENE,65,1.0,4.0,82,0.00,,OVC OVC///CB,0.00,WUHU216DAVISVP2,2013-04-09 12:03:00,
2013-04-09 08:08:00,51.7,46.5,30.08,ENE,75,1.0,5.0,82,0.00,,OVC OVC///CB,0.00,WUHU216DAVISVP2,2013-04-09 12:08:00,
2013-04-09 08:13:00,51.8,46.6,30.08,ENE,76,2.0,5.0,82,0.00,,OVC OVC///CB,0.00,WUHU216DAVISVP2,2013-04-09 12:13:00,
2013-04-09 08:18:00,51.7,46.2,30.08,East,79,0.0,5.0,81,0.00,,OVC OVC///CB,0.00,WUHU216DAVISVP2,2013-04-09 12:18:00,
2013-04-09 08:23:00,51.8,46.3,30.07,ENE,75,1.0,5.0,81,0.00,,OVC OVC///CB,0.00,WUHU216DAVISVP2,2013-04-09 12:23:00,
2013-04-09 08:28:00,52.0,46.5,30.07,East,93,1.0,5.0,81,0.00,,OVC OVC///CB,0.00,WUHU216DAVISVP2,2013-04-09 12:28:00,
2013-04-09 08:33:00,52.4,46.9,30.07,ESE,116,4.0,5.0,81,0.00,,OVC OVC///CB,0.00,WUHU216DAVISVP2,2013-04-09 12:33:00,
2013-04-09 08:38:00,52.6,46.8,30.08,ESE,122,0.0,7.0,80,0.00,,OVC OVC///CB,0.00,WUHU216DAVISVP2,2013-04-09 12:38:00,
2013-04-09 08:43:00,52.9,46.7,30.08,SSE,149,1.0,7.0,79,0.00,,OVC OVC///CB,0.00,WUHU216DAVISVP2,2013-04-09 12:43:00,
2013-04-09 08:48:00,53.1,46.6,30.08,East,89,5.0,6.0,78,0.00,,OVC OVC///CB,0.00,WUHU216DAVISVP2,2013-04-09 12:48:00,
2013-04-09 08:53:00,53.3,46.8,30.07,ESE,117,3.0,5.0,78,0.00,,OVC OVC///CB,0.00,WUHU216DAVISVP2,2013-04-09 12:53:00,
2013-04-09 08:58:00,53.6,46.8,30.08,ESE,102,5.0,7.0,77,0.00,,OVC OVC///CB,0.00,WUHU216DAVISVP2,2013-04-09 12:58:00,
2013-04-09 09:03:00,53.5,47.0,30.08,SE,141,1.0,7.0,78,0.00,,OVC OVC///CB,0.00,WUHU216DAVISVP2,2013-04-09 13:03:00,
2013-04-09 09:08:00,54.2,47.0,30.07,SE,135,2.0,6.0,76,0.00,,OVC OVC///CB,0.00,WUHU216DAVISVP2,2013-04-09 13:08:00,
2013-04-09 09:13:00,54.0,46.5,30.08,ENE,75,1.0,6.0,75,0.00,,OVC OVC///CB,0.00,WUHU216DAVISVP2,2013-04-09 13:13:00,
2013-04-09 09:18:00,54.5,47.3,30.08,SSE,149,3.0,6.0,76,0.00,,OVC OVC///CB,0.00,WUHU216DAVISVP2,2013-04-09 13:18:00,
2013-04-09 09:23:00,55.0,47.1,30.07,SE,125,0.0,5.0,74,0.00,,OVC OVC///CB,0.00,WUHU216DAVISVP2,2013-04-09 13:23:00,
2013-04-09 09:28:00,55.7,47.8,30.07,SE,134,1.0,5.0,74,0.00,,OVC OVC///CB,0.00,WUHU216DAVISVP2,2013-04-09 13:28:00,
2013-04-09 09:33:00,56.2,48.3,30.07,ESE,103,3.0,3.0,74,0.00,,OVC OVC///CB,0.00,WUHU216DAVISVP2,2013-04-09 13:33:00,
2013-04-09 09:38:00,56.5,47.8,30.07,ESE,108,1.0,5.0,72,0.00,,OVC OVC///CB,0.00,WUHU216DAVISVP2,2013-04-09 13:38:00,
2013-04-09 09:43:00,56.4,47.7,30.07,East,96,1.0,6.0,72,0.00,,OVC OVC///CB,0.00,WUHU216DAVISVP2,2013-04-09 13:43:00,
2013-04-09 09:48:00,56.8,48.1,30.07,ESE,104,2.0,6.0,72,0.00,,OVC OVC///CB,0.00,WUHU216DAVISVP2,2013-04-09 13:48:00,
2013-04-09 09:53:00,57.2,48.1,30.07,ENE,66,3.0,5.0,71,0.00,,OVC OVC///CB,0.00,WUHU216DAVISVP2,2013-04-09 13:53:00,
2013-04-09 09:58:00,57.6,48.2,30.07,ESE,113,2.0,5.0,70,0.00,,OVC OVC///CB,0.00,WUHU216DAVISVP2,2013-04-09 13:58:00,
2013-04-09 10:03:00,58.7,48.5,30.08,South,184,1.0,5.0,68,0.00,,OVC OVC///CB,0.00,WUHU216DAVISVP2,2013-04-09 14:03:00,
2013-04-09 10:08:00,59.6,48.9,30.08,SW,235,0.0,5.0,67,0.00,,OVC OVC///CB,0.00,WUHU216DAVISVP2,2013-04-09 14:08:00,
2013-04-09 10:13:00,60.3,49.2,30.08,SW,215,0.0,5.0,66,0.00,,OVC OVC///CB,0.00,WUHU216DAVISVP2,2013-04-09 14:13:00,
2013-04-09 10:18:00,60.8,49.3,30.08,SSW,193,4.0,6.0,65,0.00,,OVC OVC///CB,0.00,WUHU216DAVISVP2,2013-04-09 14:18:00,
2013-04-09 10:23:00,61.3,49.3,30.08,South,190,3.0,6.0,64,0.00,,OVC OVC///CB,0.00,WUHU216DAVISVP2,2013-04-09 14:23:00,
2013-04-09 10:28:00,61.7,49.3,30.08,SSW,201,3.0,5.0,63,0.00,,OVC OVC///CB,0.00,WUHU216DAVISVP2,2013-04-09 14:28:00,
2013-04-09 10:33:00,61.8,49.8,30.07,SSE,160,3.0,5.0,64,0.00,,OVC OVC///CB,0.00,WUHU216DAVISVP2,2013-04-09 14:33:00,
2013-04-09 10:38:00,62.3,49.4,30.07,SSW,195,5.0,8.0,62,0.00,,OVC OVC///CB,0.00,WUHU216DAVISVP2,2013-04-09 14:38:00,
2013-04-09 10:43:00,62.4,49.5,30.07,South,188,3.0,8.0,62,0.00,,OVC OVC///CB,0.00,WUHU216DAVISVP2,2013-04-09 14:43:00,
2013-04-09 10:48:00,62.6,49.7,30.07,SSW,197,4.0,8.0,62,0.00,,OVC OVC///CB,0.00,WUHU216DAVISVP2,2013-04-09 14:48:00,
2013-04-09 10:53:00,63.3,50.4,30.06,SE,141,2.0,8.0,62,0.00,,OVC OVC///CB,0.00,WUHU216DAVISVP2,2013-04-09 14:53:00,
2013-04-09 10:58:00,64.2,50.4,30.06,SSW,193,4.0,8.0,60,0.00,,OVC OVC///CB,0.00,WUHU216DAVISVP2,2013-04-09 14:58:00,
2013-04-09 11:03:00,64.4,50.5,30.05,ESE,103,2.0,6.0,60,0.00,,OVC OVC///CB,0.00,WUHU216DAVISVP2,2013-04-09 15:03:00,
2013-04-09 11:08:00,64.9,51.5,30.06,SE,127,0.0,5.0,61,0.00,,OVC OVC///CB,0.00,WUHU216DAVISVP2,2013-04-09 15:08:00,
2013-04-09 11:13:00,65.4,51.5,30.05,SSW,204,1.0,5.0,60,0.00,,OVC OVC///CB,0.00,WUHU216DAVISVP2,2013-04-09 15:13:00,
2013-04-09 11:18:00,66.4,52.0,30.05,SE,140,2.0,5.0,59,0.00,,OVC OVC///CB,0.00,WUHU216DAVISVP2,2013-04-09 15:18:00,
2013-04-09 11:23:00,66.4,52.0,30.04,SE,129,5.0,8.0,59,0.00,,OVC OVC///CB,0.00,WUHU216DAVISVP2,2013-04-09 15:23:00,
2013-04-09 11:29:00,66.5,52.5,30.04,ESE,102,5.0,9.0,60,0.00,,OVC OVC///CB,0.00,WUHU216DAVISVP2,2013-04-09 15:29:00,
2013-04-09 11:34:00,66.7,53.2,30.04,SE,134,3.0,9.0,61,0.00,,OVC OVC///CB,0.00,WUHU216DAVISVP2,2013-04-09 15:34:00,
2013-04-09 11:39:00,67.6,54.0,30.04,East,98,3.0,9.0,61,0.00,,OVC OVC///CB,0.00,WUHU216DAVISVP2,2013-04-09 15:39:00,
2013-04-09 11:44:00,68.4,53.9,30.04,SSE,160,1.0,7.0,59,0.00,,OVC OVC///CB,0.00,WUHU216DAVISVP2,2013-04-09 15:44:00,
2013-04-09 11:49:00,69.1,54.0,30.03,SSE,152,2.0,7.0,58,0.00,,OVC OVC///CB,0.00,WUHU216DAVISVP2,2013-04-09 15:49:00,
2013-04-09 11:54:00,69.4,54.3,30.03,South,184,3.0,10.0,58,0.00,,OVC OVC///CB,0.00,WUHU216DAVISVP2,2013-04-09 15:54:00,
2013-04-09 11:59:00,69.1,55.0,30.03,ESE,110,4.0,10.0,60,0.00,,OVC OVC///CB,0.00,WUHU216DAVISVP2,2013-04-09 15:59:00,
2013-04-09 12:04:00,69.5,56.3,30.03,SW,220,5.0,10.0,62,0.00,,OVC OVC///CB,0.00,WUHU216DAVISVP2,2013-04-09 16:04:00,
2013-04-09 12:09:00,69.0,55.8,30.03,SW,218,3.0,10.0,62,0.00,,OVC OVC///CB,0.00,WUHU216DAVISVP2,2013-04-09 16:09:00,
2013-04-09 12:14:00,68.8,55.6,30.03,WSW,240,6.0,9.0,62,0.00,,OVC OVC///CB,0.00,WUHU216DAVISVP2,2013-04-09 16:14:00,
2013-04-09 12:19:00,68.6,56.3,30.02,SW,221,3.0,9.0,64,0.00,,OVC OVC///CB,0.00,WUHU216DAVISVP2,2013-04-09 16:19:00,
2013-04-09 12:24:00,68.8,55.6,30.02,SSW,200,2.0,9.0,62,0.00,,OVC OVC///CB,0.00,WUHU216DAVISVP2,2013-04-09 16:24:00,
2013-04-09 12:29:00,69.6,56.4,30.02,SW,230,4.0,8.0,62,0.00,,OVC OVC///CB,0.00,WUHU216DAVISVP2,2013-04-09 16:29:00,
2013-04-09 12:34:00,70.1,56.4,30.01,WSW,243,6.0,12.0,61,0.00,,OVC OVC///CB,0.00,WUHU216DAVISVP2,2013-04-09 16:34:00,
2013-04-09 12:39:00,70.5,56.3,30.01,SSE,167,1.0,12.0,60,0.00,,OVC OVC///CB,0.00,WUHU216DAVISVP2,2013-04-09 16:39:00,
2013-04-09 12:44:00,71.1,56.9,30.01,SSE,160,5.0,11.0,60,0.00,,OVC OVC///CB,0.00,WUHU216DAVISVP2,2013-04-09 16:44:00,
2013-04-09 12:49:00,72.2,57.0,30.00,SSW,210,8.0,10.0,58,0.00,,OVC OVC///CB,0.00,WUHU216DAVISVP2,2013-04-09 16:49:00,
2013-04-09 12:54:00,71.9,57.2,30.00,SW,235,2.0,13.0,59,0.00,,OVC OVC///CB,0.00,WUHU216DAVISVP2,2013-04-09 16:54:00,
2013-04-09 12:59:00,71.4,57.2,30.00,South,188,5.0,13.0,60,0.00,,OVC OVC///CB,0.00,WUHU216DAVISVP2,2013-04-09 16:59:00,
2013-04-09 13:04:00,72.3,58.0,30.00,SSW,205,2.0,12.0,60,0.00,,OVC OVC///CB,0.00,WUHU216DAVISVP2,2013-04-09 17:04:00,
2013-04-09 13:09:00,73.5,57.7,29.99,SW,228,0.0,12.0,57,0.00,,OVC OVC///CB,0.00,WUHU216DAVISVP2,2013-04-09 17:09:00,
2013-04-09 13:14:00,73.7,57.9,29.99,South,181,3.0,10.0,57,0.00,,OVC OVC///CB,0.00,WUHU216DAVISVP2,2013-04-09 17:14:00,
2013-04-09 13:19:00,73.7,57.4,29.99,SSW,194,4.0,10.0,56,0.00,,OVC OVC///CB,0.00,WUHU216DAVISVP2,2013-04-09 17:19:00,
2013-04-09 13:25:00,73.7,57.4,29.99,SW,231,3.0,10.0,56,0.00,,OVC OVC///CB,0.00,WUHU216DAVISVP2,2013-04-09 17:25:00,
2013-04-09 13:30:00,73.9,58.1,29.98,SSW,210,7.0,12.0,57,0.00,,OVC OVC///CB,0.00,WUHU216DAVISVP2,2013-04-09 17:30:00,
2013-04-09 13:35:00,74.4,58.6,29.98,South,179,2.0,12.0,57,0.00,,OVC OVC///CB,0.00,WUHU216DAVISVP2,2013-04-09 17:35:00,
2013-04-09 13:40:00,74.6,58.7,29.98,SW,233,7.0,12.0,57,0.00,,OVC OVC///CB,0.00,WUHU216DAVISVP2,2013-04-09 17:40:00,
2013-04-09 13:45:00,74.2,58.4,29.98,South,176,5.0,12.0,57,0.00,,OVC OVC///CB,0.00,WUHU216DAVISVP2,2013-04-09 17:45:00,
2013-04-09 13:50:00,74.6,59.2,29.97,SSW,208,2.0,12.0,58,0.00,,OVC OVC///CB,0.00,WUHU216DAVISVP2,2013-04-09 17:50:00,
2013-04-09 13:55:00,75.0,59.1,29.97,South,189,11.0,11.0,57,0.00,,OVC OVC///CB,0.00,WUHU216DAVISVP2,2013-04-09 17:55:00,
2013-04-09 14:00:00,75.5,59.1,29.97,SW,222,12.0,12.0,56,0.00,,OVC OVC///CB,0.00,WUHU216DAVISVP2,2013-04-09 18:00:00,
2013-04-09 14:05:00,74.8,58.9,29.97,SSW,212,6.0,12.0,57,0.00,,OVC OVC///CB,0.00,WUHU216DAVISVP2,2013-04-09 18:05:00,
2013-04-09 14:10:00,74.8,59.4,29.97,SW,226,8.0,12.0,58,0.00,,OVC OVC///CB,0.00,WUHU216DAVISVP2,2013-04-09 18:10:00,
2013-04-09 14:15:00,74.6,58.7,29.96,SSW,212,4.0,12.0,57,0.00,,OVC OVC///CB,0.00,WUHU216DAVISVP2,2013-04-09 18:15:00,
2013-04-09 14:20:00,74.4,58.6,29.96,SW,224,3.0,18.0,57,0.00,,OVC OVC///CB,0.00,WUHU216DAVISVP2,2013-04-09 18:20:00,
2013-04-09 14:25:00,74.6,59.2,29.95,South,183,6.0,18.0,58,0.00,,OVC OVC///CB,0.00,WUHU216DAVISVP2,2013-04-09 18:25:00,
2013-04-09 14:30:00,74.7,59.3,29.95,South,177,3.0,17.0,58,0.00,,OVC OVC///CB,0.00,WUHU216DAVISVP2,2013-04-09 18:30:00,
2013-04-09 14:35:00,75.1,59.7,29.95,South,177,9.0,21.0,58,0.00,,OVC OVC///CB,0.00,WUHU216DAVISVP2,2013-04-09 18:35:00,
2013-04-09 14:40:00,75.5,60.1,29.94,WSW,240,6.0,21.0,58,0.00,,OVC OVC///CB,0.00,WUHU216DAVISVP2,2013-04-09 18:40:00,
2013-04-09 14:45:00,75.9,59.5,29.94,SW,224,8.0,21.0,56,0.00,,OVC OVC///CB,0.00,WUHU216DAVISVP2,2013-04-09 18:45:00,
2013-04-09 14:50:00,76.3,59.8,29.94,SW,228,14.0,21.0,56,0.00,,OVC OVC///CB,0.00,WUHU216DAVISVP2,2013-04-09 18:50:00,
2013-04-09 14:55:00,76.5,59.5,29.93,SSW,193,5.0,20.0,55,0.00,,OVC OVC///CB,0.00,WUHU216DAVISVP2,2013-04-09 18:55:00,
2013-04-09 15:00:00,76.9,59.4,29.93,SW,226,10.0,20.0,54,0.00,,OVC OVC///CB,0.00,WUHU216DAVISVP2,2013-04-09 19:00:00,
2013-04-09 15:05:00,76.9,59.9,29.93,WSW,248,7.0,19.0,55,0.00,,OVC OVC///CB,0.00,WUHU216DAVISVP2,2013-04-09 19:05:00,
2013-04-09 15:11:00,76.8,59.3,29.93,SW,229,13.0,20.0,54,0.00,,OVC OVC///CB,0.00,WUHU216DAVISVP2,2013-04-09 19:11:00,
2013-04-09 15:16:00,76.7,59.2,29.93,South,191,8.0,20.0,54,0.00,,OVC OVC///CB,0.00,WUHU216DAVISVP2,2013-04-09 19:16:00,
2013-04-09 15:21:00,76.8,58.7,29.93,WSW,242,9.0,20.0,53,0.00,,OVC OVC///CB,0.00,WUHU216DAVISVP2,2013-04-09 19:21:00,
2013-04-09 15:26:00,76.6,59.1,29.92,WSW,245,5.0,20.0,54,0.00,,OVC OVC///CB,0.00,WUHU216DAVISVP2,2013-04-09 19:26:00,
2013-04-09 15:31:00,76.4,58.9,29.92,SW,221,8.0,17.0,54,0.00,,OVC OVC///CB,0.00,WUHU216DAVISVP2,2013-04-09 19:31:00,
2013-04-09 15:36:00,76.5,59.5,29.92,WSW,252,8.0,17.0,55,0.00,,OVC OVC///CB,0.00,WUHU216DAVISVP2,2013-04-09 19:36:00,
2013-04-09 15:41:00,77.0,59.5,29.91,WSW,246,8.0,17.0,54,0.00,,OVC OVC///CB,0.00,WUHU216DAVISVP2,2013-04-09 19:41:00,
2013-04-09 15:46:00,77.2,59.1,29.91,SSW,204,4.0,17.0,53,0.00,,OVC OVC///CB,0.00,WUHU216DAVISVP2,2013-04-09 19:46:00,
2013-04-09 15:51:00,77.3,59.2,29.91,SW,235,6.0,17.0,53,0.00,,OVC OVC///CB,0.00,WUHU216DAVISVP2,2013-04-09 19:51:00,
2013-04-09 15:56:00,77.9,59.8,29.90,SSE,165,10.0,17.0,53,0.00,,OVC OVC///CB,0.00,WUHU216DAVISVP2,2013-04-09 19:56:00,
2013-04-09 16:01:00,78.3,59.6,29.90,SW,231,8.0,17.0,52,0.00,,OVC OVC///CB,0.00,WUHU216DAVISVP2,2013-04-09 20:01:00,
2013-04-09 16:06:00,79.0,59.7,29.90,WNW,297,5.0,17.0,51,0.00,,OVC OVC///CB,0.00,WUHU216DAVISVP2,2013-04-09 20:06:00,
2013-04-09 16:11:00,79.0,59.7,29.89,SW,231,6.0,17.0,51,0.00,,OVC OVC///CB,0.00,WUHU216DAVISVP2,2013-04-09 20:11:00,
2013-04-09 16:16:00,79.1,59.8,29.89,WNW,283,9.0,15.0,51,0.00,,OVC OVC///CB,0.00,WUHU216DAVISVP2,2013-04-09 20:16:00,
2013-04-09 16:21:00,78.9,59.6,29.89,WSW,253,13.0,16.0,51,0.00,,OVC OVC///CB,0.00,WUHU216DAVISVP2,2013-04-09 20:21:00,
2013-04-09 16:26:00,78.9,59.6,29.89,SW,233,7.0,19.0,51,0.00,,OVC OVC///CB,0.00,WUHU216DAVISVP2,2013-04-09 20:26:00,
2013-04-09 16:31:00,78.6,59.3,29.89,WSW,240,11.0,19.0,51,0.00,,OVC OVC///CB,0.00,WUHU216DAVISVP2,2013-04-09 20:31:00,
2013-04-09 16:36:00,78.2,59.5,29.89,SW,219,7.0,18.0,52,0.00,,OVC OVC///CB,0.00,WUHU216DAVISVP2,2013-04-09 20:36:00,
2013-04-09 16:41:00,77.9,59.2,29.89,South,190,7.0,16.0,52,0.00,,OVC OVC///CB,0.00,WUHU216DAVISVP2,2013-04-09 20:41:00,
2013-04-09 16:46:00,77.9,59.2,29.88,SSW,212,8.0,16.0,52,0.00,,OVC OVC///CB,0.00,WUHU216DAVISVP2,2013-04-09 20:46:00,
2013-04-09 16:51:00,78.5,59.8,29.88,WSW,255,5.0,16.0,52,0.00,,OVC OVC///CB,0.00,WUHU216DAVISVP2,2013-04-09 20:51:00,
2013-04-09 16:56:00,79.2,59.9,29.88,SW,228,12.0,16.0,51,0.00,,OVC OVC///CB,0.00,WUHU216DAVISVP2,2013-04-09 20:56:00,
2013-04-09 17:01:00,78.8,58.9,29.88,SW,231,18.0,19.0,50,0.00,,OVC OVC///CB,0.00,WUHU216DAVISVP2,2013-04-09 21:01:00,
2013-04-09 17:07:00,78.3,59.0,29.88,SW,224,7.0,20.0,51,0.00,,OVC OVC///CB,0.00,WUHU216DAVISVP2,2013-04-09 21:07:00,
2013-04-09 17:12:00,78.6,59.3,29.88,SW,222,13.0,20.0,51,0.00,,OVC OVC///CB,0.00,WUHU216DAVISVP2,2013-04-09 21:12:00,
2013-04-09 17:17:00,78.8,60.0,29.87,WSW,243,8.0,19.0,52,0.00,,OVC OVC///CB,0.00,WUHU216DAVISVP2,2013-04-09 21:17:00,
2013-04-09 17:22:00,79.3,59.4,29.87,SW,226,6.0,19.0,50,0.00,,OVC OVC///CB,0.00,WUHU216DAVISVP2,2013-04-09 21:22:00,
2013-04-09 17:27:00,79.8,59.8,29.88,West,278,7.0,17.0,50,0.00,,OVC OVC///CB,0.00,WUHU216DAVISVP2,2013-04-09 21:27:00,
2013-04-09 17:32:00,80.0,59.5,29.87,SSW,203,9.0,20.0,49,0.00,,OVC OVC///CB,0.00,WUHU216DAVISVP2,2013-04-09 21:32:00,
2013-04-09 17:37:00,80.1,59.5,29.87,West,273,9.0,20.0,49,0.00,,OVC OVC///CB,0.00,WUHU216DAVISVP2,2013-04-09 21:37:00,
2013-04-09 17:42:00,80.0,59.5,29.87,SSW,210,9.0,19.0,49,0.00,,OVC OVC///CB,0.00,WUHU216DAVISVP2,2013-04-09 21:42:00,
2013-04-09 17:47:00,79.9,59.4,29.87,SW,233,11.0,19.0,49,0.00,,OVC OVC///CB,0.00,WUHU216DAVISVP2,2013-04-09 21:47:00,
2013-04-09 17:52:00,80.0,59.5,29.87,SSW,201,8.0,18.0,49,0.00,,OVC OVC///CB,0.00,WUHU216DAVISVP2,2013-04-09 21:52:00,
2013-04-09 17:57:00,79.8,59.3,29.87,WSW,245,8.0,19.0,49,0.00,,OVC OVC///CB,0.00,WUHU216DAVISVP2,2013-04-09 21:57:00,
2013-04-09 18:02:00,79.9,59.9,29.87,WSW,246,7.0,19.0,50,0.00,,OVC OVC///CB,0.00,WUHU216DAVISVP2,2013-04-09 22:02:00,
2013-04-09 18:07:00,79.7,59.8,29.87,SSW,194,3.0,19.0,50,0.00,,OVC OVC///CB,0.00,WUHU216DAVISVP2,2013-04-09 22:07:00,
2013-04-09 18:12:00,79.5,59.6,29.87,SW,218,12.0,19.0,50,0.00,,OVC OVC///CB,0.00,WUHU216DAVISVP2,2013-04-09 22:12:00,
2013-04-09 18:17:00,79.2,59.3,29.87,WSW,238,6.0,20.0,50,0.00,,OVC OVC///CB,0.00,WUHU216DAVISVP2,2013-04-09 22:17:00,
2013-04-09 18:22:00,79.2,59.3,29.87,SW,225,12.0,21.0,50,0.00,,OVC OVC///CB,0.00,WUHU216DAVISVP2,2013-04-09 22:22:00,
2013-04-09 18:27:00,79.2,59.3,29.88,SW,225,10.0,21.0,50,0.00,,OVC OVC///CB,0.00,WUHU216DAVISVP2,2013-04-09 22:27:00,
2013-04-09 18:32:00,79.0,59.1,29.87,WSW,253,5.0,22.0,50,0.00,,OVC OVC///CB,0.00,WUHU216DAVISVP2,2013-04-09 22:32:00,
2013-04-09 18:37:00,79.1,59.2,29.87,WSW,250,7.0,22.0,50,0.00,,OVC OVC///CB,0.00,WUHU216DAVISVP2,2013-04-09 22:37:00,
2013-04-09 18:42:00,79.2,59.3,29.87,SSW,210,10.0,22.0,50,0.00,,OVC OVC///CB,0.00,WUHU216DAVISVP2,2013-04-09 22:42:00,
2013-04-09 18:47:00,79.3,59.4,29.87,WSW,245,8.0,22.0,50,0.00,,OVC OVC///CB,0.00,WUHU216DAVISVP2,2013-04-09 22:47:00,
2013-04-09 18:52:00,79.2,59.3,29.87,WSW,250,3.0,21.0,50,0.00,,OVC OVC///CB,0.00,WUHU216DAVISVP2,2013-04-09 22:52:00,
2013-04-09 18:57:00,79.1,59.2,29.87,SW,236,3.0,19.0,50,0.00,,OVC OVC///CB,0.00,WUHU216DAVISVP2,2013-04-09 22:57:00,
2013-04-09 19:02:00,79.0,59.1,29.87,West,262,7.0,19.0,50,0.00,,OVC OVC///CB,0.00,WUHU216DAVISVP2,2013-04-09 23:02:00,
2013-04-09 19:07:00,78.7,58.8,29.87,SW,228,6.0,14.0,50,0.00,,OVC OVC///CB,0.00,WUHU216DAVISVP2,2013-04-09 23:07:00,
2013-04-09 19:12:00,78.4,58.6,29.87,WSW,258,8.0,14.0,50,0.00,,OVC OVC///CB,0.00,WUHU216DAVISVP2,2013-04-09 23:12:00,
2013-04-09 19:17:00,78.2,58.9,29.87,West,260,8.0,14.0,51,0.00,,OVC OVC///CB,0.00,WUHU216DAVISVP2,2013-04-09 23:17:00,
2013-04-09 19:22:00,77.8,58.6,29.87,WSW,238,6.0,13.0,51,0.00,,OVC OVC///CB,0.00,WUHU216DAVISVP2,2013-04-09 23:22:00,
2013-04-09 19:27:00,77.6,58.4,29.87,SW,221,7.0,15.0,51,0.00,,OVC OVC///CB,0.00,WUHU216DAVISVP2,2013-04-09 23:27:00,
2013-04-09 19:32:00,77.5,58.3,29.87,West,269,7.0,15.0,51,0.00,,OVC OVC///CB,0.00,WUHU216DAVISVP2,2013-04-09 23:32:00,
2013-04-09 19:37:00,77.3,58.1,29.87,SW,228,9.0,14.0,51,0.00,,OVC OVC///CB,0.00,WUHU216DAVISVP2,2013-04-09 23:37:00,
2013-04-09 19:42:00,77.2,58.0,29.87,SW,228,5.0,14.0,51,0.00,,OVC OVC///CB,0.00,WUHU216DAVISVP2,2013-04-09 23:42:00,
2013-04-09 19:47:00,77.1,57.9,29.86,WSW,248,10.0,13.0,51,0.00,,OVC OVC///CB,0.00,WUHU216DAVISVP2,2013-04-09 23:47:00,
2013-04-09 19:52:00,76.9,57.7,29.86,WSW,243,4.0,15.0,51,0.00,,OVC OVC///CB,0.00,WUHU216DAVISVP2,2013-04-09 23:52:00,
2013-04-09 19:57:00,76.7,57.5,29.86,WSW,255,4.0,15.0,51,0.00,,OVC OVC///CB,0.00,WUHU216DAVISVP2,2013-04-09 23:57:00,
2013-04-09 20:03:00,76.5,57.4,29.86,WSW,256,6.0,14.0,51,0.00,,OVC OVC///CB,0.00,WUHU216DAVISVP2,2013-04-10 00:03:00,
2013-04-09 20:08:00,76.4,57.3,29.86,SW,229,7.0,13.0,51,0.00,,OVC OVC///CB,0.00,WUHU216DAVISVP2,2013-04-10 00:08:00,
2013-04-09 20:13:00,76.3,57.2,29.87,WSW,248,7.0,17.0,51,0.00,,OVC OVC///CB,0.00,WUHU216DAVISVP2,2013-04-10 00:13:00,
2013-04-09 20:18:00,76.1,57.5,29.87,West,262,8.0,17.0,52,0.00,,OVC OVC///CB,0.00,WUHU216DAVISVP2,2013-04-10 00:18:00,
2013-04-09 20:23:00,75.9,57.4,29.87,SW,215,3.0,16.0,52,0.00,,OVC OVC///CB,0.00,WUHU216DAVISVP2,2013-04-10 00:23:00,
2013-04-09 20:28:00,75.7,57.7,29.87,SW,229,4.0,16.0,53,0.00,,OVC OVC///CB,0.00,WUHU216DAVISVP2,2013-04-10 00:28:00,
2013-04-09 20:33:00,75.6,57.6,29.87,WSW,255,3.0,15.0,53,0.00,,OVC OVC///CB,0.00,WUHU216DAVISVP2,2013-04-10 00:33:00,
2013-04-09 20:38:00,75.4,57.4,29.88,WSW,246,3.0,10.0,53,0.00,,OVC OVC///CB,0.00,WUHU216DAVISVP2,2013-04-10 00:38:00,
2013-04-09 20:43:00,75.3,57.3,29.88,SW,222,9.0,12.0,53,0.00,,OVC OVC///CB,0.00,WUHU216DAVISVP2,2013-04-10 00:43:00,
2013-04-09 20:48:00,75.4,57.4,29.88,WSW,258,5.0,12.0,53,0.00,,OVC OVC///CB,0.00,WUHU216DAVISVP2,2013-04-10 00:48:00,
2013-04-09 20:53:00,75.2,57.8,29.88,West,260,5.0,12.0,54,0.00,,OVC OVC///CB,0.00,WUHU216DAVISVP2,2013-04-10 00:53:00,
2013-04-09 20:58:00,75.0,57.6,29.88,SW,234,1.0,12.0,54,0.00,,OVC OVC///CB,0.00,WUHU216DAVISVP2,2013-04-10 00:58:00,
2013-04-09 21:03:00,74.7,57.3,29.89,WSW,255,3.0,11.0,54,0.00,,OVC OVC///CB,0.00,WUHU216DAVISVP2,2013-04-10 01:03:00,
2013-04-09 21:08:00,74.5,57.6,29.89,West,262,4.0,11.0,55,0.00,,OVC OVC///CB,0.00,WUHU216DAVISVP2,2013-04-10 01:08:00,
2013-04-09 21:13:00,74.3,57.4,29.89,SW,224,1.0,10.0,55,0.00,,OVC OVC///CB,0.00,WUHU216DAVISVP2,2013-04-10 01:13:00,
2013-04-09 21:18:00,74.1,57.3,29.89,WSW,243,4.0,10.0,55,0.00,,OVC OVC///CB,0.00,WUHU216DAVISVP2,2013-04-10 01:18:00,
2013-04-09 21:23:00,74.1,57.3,29.90,WSW,245,2.0,7.0,55,0.00,,OVC OVC///CB,0.00,WUHU216DAVISVP2,2013-04-10 01:23:00,
2013-04-09 21:28:00,73.9,57.6,29.90,SW,233,3.0,7.0,56,0.00,,OVC OVC///CB,0.00,WUHU216DAVISVP2,2013-04-10 01:28:00,
2013-04-09 21:33:00,73.7,57.4,29.90,SSW,202,3.0,9.0,56,0.00,,OVC OVC///CB,0.00,WUHU216DAVISVP2,2013-04-10 01:33:00,
2013-04-09 21:38:00,73.7,57.4,29.89,SW,225,2.0,11.0,56,0.00,,OVC OVC///CB,0.00,WUHU216DAVISVP2,2013-04-10 01:38:00,
2013-04-09 21:43:00,73.4,57.1,29.89,SW,231,4.0,11.0,56,0.00,,OVC OVC///CB,0.00,WUHU216DAVISVP2,2013-04-10 01:43:00,
2013-04-09 21:48:00,73.3,57.5,29.89,SW,231,5.0,10.0,57,0.00,,OVC OVC///CB,0.00,WUHU216DAVISVP2,2013-04-10 01:48:00,
2013-04-09 21:53:00,73.1,57.3,29.89,SSW,212,5.0,10.0,57,0.00,,OVC OVC///CB,0.00,WUHU216DAVISVP2,2013-04-10 01:53:00,
2013-04-09 21:58:00,73.0,57.2,29.89,SW,233,6.0,10.0,57,0.00,,OVC OVC///CB,0.00,WUHU216DAVISVP2,2013-04-10 01:58:00,
2013-04-09 22:03:00,72.7,57.4,29.89,SW,231,4.0,10.0,58,0.00,,OVC OVC///CB,0.00,WUHU216DAVISVP2,2013-04-10 02:03:00,
2013-04-09 22:08:00,72.5,57.3,29.89,SW,231,8.0,10.0,58,0.00,,OVC OVC///CB,0.00,WUHU216DAVISVP2,2013-04-10 02:08:00,
2013-04-09 22:13:00,72.4,57.2,29.90,SW,236,1.0,10.0,58,0.00,,OVC OVC///CB,0.00,WUHU216DAVISVP2,2013-04-10 02:13:00,
2013-04-09 22:18:00,72.2,57.4,29.90,SW,221,3.0,10.0,59,0.00,,OVC OVC///CB,0.00,WUHU216DAVISVP2,2013-04-10 02:18:00,
2013-04-09 22:23:00,72.2,57.4,29.90,WSW,238,5.0,10.0,59,0.00,,OVC OVC///CB,0.00,WUHU216DAVISVP2,2013-04-10 02:23:00,
2013-04-09 22:28:00,72.0,57.3,29.90,SW,226,6.0,10.0,59,0.00,,OVC OVC///CB,0.00,WUHU216DAVISVP2,2013-04-10 02:28:00,
2013-04-09 22:33:00,72.0,57.3,29.90,SW,232,4.0,9.0,59,0.00,,OVC OVC///CB,0.00,WUHU216DAVISVP2,2013-04-10 02:33:00,
2013-04-09 22:38:00,72.0,57.3,29.90,SW,229,4.0,9.0,59,0.00,,OVC OVC///CB,0.00,WUHU216DAVISVP2,2013-04-10 02:38:00,
2013-04-09 22:43:00,71.9,57.2,29.90,WSW,252,5.0,13.0,59,0.00,,OVC OVC///CB,0.00,WUHU216DAVISVP2,2013-04-10 02:43:00,
2013-04-09 22:48:00,71.9,57.2,29.90,WSW,256,2.0,13.0,59,0.00,,OVC OVC///CB,0.00,WUHU216DAVISVP2,2013-04-10 02:48:00,
2013-04-09 22:53:00,71.8,57.5,29.90,WSW,255,1.0,12.0,60,0.00,,OVC OVC///CB,0.00,WUHU216DAVISVP2,2013-04-10 02:53:00,
2013-04-09 22:58:00,71.6,57.4,29.90,WNW,291,3.0,12.0,60,0.00,,OVC OVC///CB,0.00,WUHU216DAVISVP2,2013-04-10 02:58:00,
2013-04-09 23:03:00,71.4,57.2,29.90,SW,225,2.0,11.0,60,0.00,,OVC OVC///CB,0.00,WUHU216DAVISVP2,2013-04-10 03:03:00,
2013-04-09 23:08:00,71.2,57.4,29.90,West,260,4.0,11.0,61,0.00,,OVC OVC///CB,0.00,WUHU216DAVISVP2,2013-04-10 03:08:00,
2013-04-09 23:13:00,71.1,57.3,29.89,WSW,250,5.0,11.0,61,0.00,,OVC OVC///CB,0.00,WUHU216DAVISVP2,2013-04-10 03:13:00,
2013-04-09 23:18:00,71.0,57.2,29.90,WSW,238,8.0,10.0,61,0.00,,OVC OVC///CB,0.00,WUHU216DAVISVP2,2013-04-10 03:18:00,
2013-04-09 23:23:00,70.9,57.1,29.89,SW,235,4.0,10.0,61,0.00,,OVC OVC///CB,0.00,WUHU216DAVISVP2,2013-04-10 03:23:00,
2013-04-09 23:28:00,70.7,57.4,29.89,WSW,253,4.0,9.0,62,0.00,,OVC OVC///CB,0.00,WUHU216DAVISVP2,2013-04-10 03:28:00,
2013-04-09 23:33:00,70.6,57.3,29.89,WSW,257,2.0,10.0,62,0.00,,OVC OVC///CB,0.00,WUHU216DAVISVP2,2013-04-10 03:33:00,
2013-04-09 23:38:00,70.4,57.1,29.89,WSW,248,2.0,10.0,62,0.00,,OVC OVC///CB,0.00,WUHU216DAVISVP2,2013-04-10 03:38:00,
2013-04-09 23:43:00,70.3,57.5,29.89,WSW,238,1.0,10.0,63,0.00,,OVC OVC///CB,0.00,WUHU216DAVISVP2,2013-04-10 03:43:00,
2013-04-09 23:48:00,70.1,57.3,29.89,WSW,238,5.0,9.0,63,0.00,,OVC OVC///CB,0.00,WUHU216DAVISVP2,2013-04-10 03:48:00,
2013-04-09 23:53:00,70.0,57.2,29.89,WSW,243,4.0,9.0,63,0.00,,OVC OVC///CB,0.00,WUHU216DAVISVP2,2013-04-10 03:53:00,
2013-04-09 23:58:00,69.8,57.4,29.89,SW,215,2.0,8.0,64,0.00,,OVC OVC///CB,0.00,WUHU216DAVISVP2,2013-04-10 03:58:00,